User: anonymous   Login
Location: Unspecified
(0.0000°N, 0.0000°E)
Time: 21:36:00
(UTC+01:00)
Language:

NOSS 2-2 (E) - Orbit

View from above orbital plane
View from above orbital plane
View from above satellite
View from above satellite

Ground track
Ground track

The orbit data is extracted from the following two-line orbital elements,

1 21809U 91076E   17049.80760905 0.00000080  00000-0  27652-4 0    06
2 21809  63.3500  44.2975 0734000  21.7963 338.2037 13.41320730    02
Epoch (UTC): 18 February 2017 19:22:57
Eccentricity: 0.0734000
inclination: 63.3500°
perigee height: 555 km
apogee height: 1653 km
right ascension of ascending node: 44.2975°
argument of perigee: 21.7963°
revolutions per day: 13.41320730
mean anomaly at epoch: 338.2037°
orbit number at epoch: 0

The dashed part of the orbit path shows where the satellite is in the earth's shadow,  

DLR